Location: Hermaringen
(48.5952°N, 10.2585°E)
Time: 20:43:03
(UTC+00:00)

ISS - Pass Details

Date: 18 November 2025
Orbit: 416 x 420 km, 51.6° (Epoch: 10 December)

Event Time Altitude Azimuth Distance (km) Brightness Sun altitude
Rises 17:57:59 0° 266° (W) 2,367 1.5 -23.2°
Reaches altitude 10° 18:00:07 10° 271° (W) 1,502 0.1 -23.6°
Enters shadow 18:02:29 38° 295° (WNW) 658 -2.4 -24.0°
